Regional Weather Roundup
Issued by NWS

Home | Current Version | Previous Version | Text Only | Print | Product List | Glossary Off
Versions: 1 2 3 4 5 6 7 8 9 10 11 12 13 14 15 16 17 18 19 20 21 22 23 24 25 26 27 28 29 30 31 32 33 34 35 36 37 38 39 40 41 42 43 44 45 46 47 48 49 50

000
ASUS43 KLSX 130707
RWRMO

WEATHER SUMMARY FOR MISSOURI
NATIONAL WEATHER SERVICE SPRINGFIELD MO
100 AM CST SAT FEB 13 2016

NOTE: "FAIR" INDICATES FEW OR NO CLOUDS BELOW 12,000 FEET WITH NO
       SIGNIFICANT WEATHER AND/OR OBSTRUCTIONS TO VISIBILITY.
       CURRENT SKY AND/OR WEATHER CONDITIONS ARE NOT AVAILABLE FOR
       CHILLICOTHE AND FARMINGTON.

MOZ001>031-035>038-043-044-053-054-130800-
...NORTHERN AND WESTERN MISSOURI...

CITY           SKY/WX    TMP DP  RH WIND       PRES   REMARKS
KANSAS CTY INT CLOUDY    17   4  56 N10       30.59F WCI   5
KANSAS C DTWN  CLOUDY    20   3  48 NE10      30.62S WCI   9
LEE`S SUMMIT   CLOUDY    18   4  54 NE12      30.60R WCI   5
ST JOSEPH      CLOUDY    16   5  62 N10       30.64R WCI   4
CHILLICOTHE      N/A     14   3  61 N7        30.65R WCI   4
KIRKSVILLE     CLOUDY     9  -1  64 N10       30.61R WCI  -5

$$
MOZ066>068-077>081-088>096-101>105-130800-
...SOUTHWEST MISSOURI...

CITY           SKY/WX    TMP DP  RH WIND       PRES   REMARKS
SPRINGFIELD    CLOUDY    25   6  44 N12       30.50F WCI  14
JOPLIN         CLOUDY    28  10  46 NE10      30.54R WCI  19

$$
MOZ032>034-039>042-045>050-055>058-069>072-130800-
...CENTRAL MISSOURI...

CITY           SKY/WX    TMP DP  RH WIND       PRES   REMARKS
COLUMBIA       CLOUDY    16   5  62 N13       30.57R WCI   2
JEFFERSON CITY PTCLDY    18   5  57 N7        30.60R WCI   9
ROLLA          CLEAR     17   5  59 N12       30.50F WCI   4
SEDALIA        CLOUDY    18   2  49 N13       30.61R WCI   5
WHITEMAN AFB   CLOUDY    18   4  55 N12       30.59R WCI   5
WARRENSBURG    CLOUDY    19   5  53 N9        30.61S WCI   9
OSAGE BEACH    CLEAR     19   1  45 NW8       30.56R WCI   9

$$
MOZ051-052-059>065-130800-
...EAST CENTRAL MISSOURI...

CITY           SKY/WX    TMP DP  RH WIND       PRES   REMARKS
ST LOUIS INTL  CLEAR     17   3  54 N13       30.56R WCI   4
SPIRIT OF STL  PTCLDY    17   3  54 N12       30.57R WCI   4
ST CHARLES     PTCLDY    15   4  61 N15       30.58R WCI   0

$$
MOZ072>076-082>087-097>100-106>115-130800-
...SOUTH CENTRAL AND SOUTHEAST MISSOURI...

CITY           SKY/WX    TMP DP  RH WIND       PRES   REMARKS
CAPE GIRARDEAU CLEAR     23   8  52 N10       30.52R WCI  12
FARMINGTON     CLEAR     19   3  49 N9        30.51R WCI   8
POPLAR BLUFF   CLEAR     27  14  58 N13       30.50R WCI  16
WEST PLAINS    CLEAR     24  10  55 N6        30.49S WCI  17

$$


USA.gov is the U.S. government's official web portal to all federal, state and local government web resources and services.